Regional Weather Roundup
Issued by NWS Charleston, SC

Current Version | Previous Version | Text Only | Print | Product List | Glossary Off
Versions: 1 2 3 4 5 6 7 8 9 10 11 12 13 14 15 16 17 18 19 20 21 22 23 24 25 26 27 28 29 30 31 32 33 34 35 36 37 38 39 40 41 42 43 44 45 46 47 48 49 50

000
ASUS42 KCHS 241045
RWRCHS

REGIONAL WEATHER ROUNDUP
NATIONAL WEATHER SERVICE CHARLESTON SC
600 AM EDT SUN SEP 24 2017

NOTE: "FAIR" INDICATES FEW OR NO CLOUDS BELOW 12,000 FEET WITH NO
SIGNIFICANT WEATHER AND/OR OBSTRUCTIONS TO VISIBILITY.

NOT ALL STATIONS ARE QUALITY CONTROLLED. USE DATA WITH CAUTION...
ESPECIALLY DEWPOINT OBSERVATIONS.

SCZ027-030-031-034>040-042>050-241100-
...SOUTHEAST SOUTH CAROLINA...

CITY           SKY/WX    TMP DP  RH WIND       PRES   REMARKS
N CHARLESTON   PTCLDY    70  68  93 N8        29.98R
WATERFRONT PRK   N/A     73  70  90 N8        29.81R
JOHNS ISLAND   FAIR      72  70  94 N5        29.98R
PINOPOLIS        N/A     73  70  88 NE13      29.92R
MONCKS CORNER  FAIR      70  68  94 N6        30.00S
SUMMERVILLE    FAIR      68  68 100 CALM      30.01R
BEAUFORT MCAS  PTCLDY    72  71  97 N8        29.98R
BEAUFORT ARPT  FAIR      72  68  88 N7        29.98R
HILTON HEAD IS NOT AVBL
WALTERBORO     PTSUNNY   68  68 100 N5        30.01S
ALLENDALE      NOT AVBL

...SOUTHERN MIDLANDS AND PEE DEE...

CITY           SKY/WX    TMP DP  RH WIND       PRES   REMARKS
GEORGETOWN     FAIR      70  68  94 N7        30.00R
KINGSTREE      FAIR      64  63  94 CALM      30.02R
ORANGEBURG     CLEAR     65  64  97 CALM      30.03R FOG
BARNWELL       FAIR      66  64  94 CALM      30.02S
AIKEN          FAIR      61  61 100 NE5       30.08R
MANNING        FAIR      66  59  77 MISG      30.02S HAZE
COLUMBIA       PTCLDY    64  61  90 CALM      30.03R
SUMTER         CLEAR     65  60  85 NE6       30.01R
FLORENCE       CLOUDY    67  65  93 N6        30.03S
MYRTLE BEACH   PTCLDY    71  68  90 NE9       30.01R
N MYRTLE BEACH PTCLDY    70  68  93 NE7       29.99S

$$

GAZ063-065-086>088-099>101-113>116-118-119-134>141-150-241100-
...SOUTHEAST GEORGIA...

CITY           SKY/WX    TMP DP  RH WIND       PRES   REMARKS
SAVANNAH ARPT  PTCLDY    70  70 100 N7        29.98
HUNTER AAF     PTCLDY    72  71  94 N3        29.95R
FORT STEWART   MOCLDY    70  68  94 N6        29.95S
STATESBORO     CLOUDY    70  70 100 N3        30.00S
SYLVANIA       MOSUNNY   69  69 100 CALM      30.01S
CLAXTON        FAIR      69  68  98 CALM      29.99S

...CSRA...CENTRAL AND FAR SOUTHEAST GEORGIA...

CITY           SKY/WX    TMP DP  RH WIND       PRES   REMARKS
THOMSON        CLEAR     63  62  97 CALM      30.09R FOG
AUGUSTA-BUSH   CLEAR     66  64  93 CALM      30.02R
AUGUSTA-DANIEL CLEAR     69  66  90 N3        30.04R
SWAINSBORO     FAIR      70  70 100 NE8       30.02S
VIDALIA        CLOUDY    70  70 100 N6        30.00R
EASTMAN        FAIR      67  67  99 CALM      30.03R FOG
HAZLEHURST     FAIR      70  68  94 NE5       29.98R
ALMA           CLOUDY    71  69  93 CALM      29.96S FOG
WAYCROSS       CLOUDY    72  69  90 NE3       29.96R
JESUP          NOT AVBL
BAXLEY         FAIR      70  70 100 NE5       29.97S
BRUNSWICK      CLOUDY    72  70  94 N3        29.95S
SAINT SIMONS   CLOUDY    79  72  79 NE8       29.94R

$$

SCZ027-028-034-036>038-045-046-048>050-GAZ119-141-241100-
...LAKE AND SUPPLEMENTAL COASTAL OBSERVATIONS...

STATION/POSITION TIME  TEMP    WIND        PRES    WAVE   SWELL
                       AIR SEA DIR/SP/G            HT/PER HT/PER/DIR
                 (UTC) (F)     (DEG/KT/KT) (MB)    (FT/S) (FT/S/D)
WINYAH BAY       0930   71     360/  5     1015.0S
LAKE MURRAY      0920   69      20/  1/  3 1016.3
ACE BASIN NERRS  0945   71     350/  2     1015.0R
FORT PULASKI     1000   74 80  360/  6/  7 1015.1
SAPELO ISLAND    1000   75        CALM     1014.0

$$

ANZ835-935-AMZ111-154-330-350-352-354-370-450-454-472-241100-
...C-MAN AND BUOY OBSERVATIONS...

STATION/POSITION TIME  TEMP    WIND        PRES    WAVE   SWELL
                       AIR SEA DIR/SP/G            HT/PER HT/PER/DIR
                 (UTC) (F)     (DEG/KT/KT) (MB)    (FT/S) (FT/S/D)
BUOY 41004       1010   80 82   50/ 17/ 21 1013.5
BUOY 41008       0950   80 80   50/ 14/ 17 1013.5R   5/15   3/130/15
FOLLY BEACH CMAN 1000   75      10/ 12/ 15 1015.4R
CAPERS NEARSHORE 1008   73 81   30/ 16/ 19 1014.4R
FRIPP NEARSHORE  1008   77      30/ 14/ 17 1019.5R


STATION/POSITION TIME  TEMP    WIND        PRES    WAVE   SWELL
                       AIR SEA DIR/SP/G            HT/PER HT/PER/DIR
                 (UTC) (F)     (DEG/KT/KT) (MB)    (FT/S) (FT/S/D)
5E ST. MARYS GA  1000      81                N/A     6/13   3/120/13
FRYING PAN BUOY  1010           40/ 17/ 23 1014.1
BUOY 41025       0950   73 74   30/ 17/ 19 1014.9F   7/14   7/150/14
CAPE LOOKOUT NC  1000   73      20/ 12/ 14 1015.2F
BUOY 41002       0950   78 79   40/ 23/ 27 1009.9R  14/15  11/140/15
BUOY 41010       1010           40/ 16/ 21 1011.4
ST AUGUSTINE FL  1000   81 81   60/ 17/ 19 1012.6R


$$



USA.gov is the U.S. government's official web portal to all federal, state and local government web resources and services.